St. Johnsbury, VT

5:40 AM EDT on April 25, 2018 (GMT -0400)
St. Johnsbury

Weather History for K1V4 - July, 2013

Change the Weather History Date:

Thursday, July 18, 2013

  Actual Average Record
Temperature  
Mean Temperature 78 °F 70 °F  
Max Temperature 88 °F 82 °F 99 °F (1953)
Min Temperature 67 °F 59 °F 41 °F (1956)
Degree Days  
Heating Degree Days 0 0  
Month to date heating degree days 10  
Since 1 June heating degree days 82  
Since 1 July heating degree days 10  
Cooling Degree Days 13 6  
Month to date cooling degree days 149 102  
Year to date cooling degree days 245 210  
Since 1 June cooling degree days 229 192  
Growing Degree Days 26 (Base 50)    
Moisture  
Dew Point 68 °F    
Average Humidity 76    
Maximum Humidity 100    
Minimum Humidity 51    
Precipitation  
Precipitation 0.00 in 0.13 in 2.72 in (1968)
Month to date precipitation 4.18 2.30  
Year to date precipitation 21.03 19.72  
Sea Level Pressure  
Sea Level Pressure 29.95 in    
Wind  
Wind Speed - (North)    
Max Wind Speed -    
Max Gust Speed -    
T = Trace of Precipitation, MM = Missing Value Source: NWS Daily Summary

Daily Weather History Graph

Daily Weather History Graph

Search for Another Location

Airport or City:

Astronomy

Jul. 18, 2013 Rise Set
Actual Time 5:20 AM EDT 8:27 PM EDT
Civil Twilight 4:45 AM EDT 9:02 PM EDT
Nautical Twilight 4:00 AM EDT 9:47 PM EDT
Astronomical Twilight 3:06 AM EDT 10:41 PM EDT
Moon 4:19 PM EDT (7/18) 1:11 AM EDT (7/18)
Length of Visible Light 16h 16m
Length of Day
15h 06m
Waxing Gibbous, 77% of the Moon is Illuminated
Jul 18
Waxing Gibbous
Jul 22
Full
Jul 29
Last Quarter
Aug 6
New
Aug 14
First Quarter

Hourly Weather History & Observations

Time (EDT) Temp. Heat Index Dew Point Humidity Pressure Visibility Wind Dir Wind Speed Gust Speed Precip Events Conditions
12:54 AM 70.0 °F - 69.1 °F 97% 29.97 in - North - - N/A   Unknown
1:54 AM 70.0 °F - 69.1 °F 97% 29.96 in - North - - N/A   Unknown
2:54 AM 69.1 °F - 68.0 °F 96% 29.96 in - North - - N/A   Unknown
3:54 AM 68.0 °F - 68.0 °F 100% 29.96 in - North - - N/A   Unknown
4:54 AM 68.0 °F - 66.9 °F 96% 29.97 in - North - - N/A   Unknown
5:54 AM 66.9 °F - 66.9 °F 100% 29.99 in - North - - N/A   Unknown
6:54 AM 66.9 °F - 66.9 °F 100% 30.00 in - North - - N/A   Unknown
7:54 AM 68.0 °F - 68.0 °F 100% 30.02 in - North - - N/A   Unknown
8:54 AM 70.0 °F - 68.0 °F 93% 30.02 in - North - - N/A   Unknown
9:54 AM 70.0 °F - 66.9 °F 90% 30.00 in - North - - N/A   Unknown
10:54 AM 73.0 °F - 69.1 °F 87% 29.99 in - North - - N/A   Unknown
11:54 AM 78.1 °F - 70.0 °F 76% 29.97 in - North - - N/A   Unknown
12:54 PM 82.0 °F 84.5 °F 66.9 °F 60% 29.96 in - North - - N/A   Unknown
1:54 PM 82.9 °F 85.8 °F 68.0 °F 60% 29.95 in - North - - N/A   Unknown
2:54 PM 86.0 °F 88.2 °F 66.0 °F 51% 29.93 in - North - - N/A   Unknown
3:54 PM 87.1 °F 90.6 °F 68.0 °F 53% 29.91 in - North - - N/A   Unknown
4:54 PM 86.0 °F 89.4 °F 68.0 °F 55% 29.91 in - North - - N/A   Unknown
5:54 PM 80.1 °F 83.2 °F 70.0 °F 71% 29.91 in - North - - N/A   Unknown
6:54 PM 78.1 °F - 69.1 °F 74% 29.91 in - North - - N/A   Unknown
7:54 PM 75.9 °F - 66.9 °F 74% 29.92 in - North - - N/A   Unknown
8:54 PM 75.0 °F - 69.1 °F 82% 29.92 in - North - - N/A   Unknown
9:54 PM 73.0 °F - 69.1 °F 87% 29.94 in - North - - N/A   Unknown
10:54 PM 73.0 °F - 69.1 °F 87% 29.93 in - North - - N/A   Unknown
11:54 PM 72.0 °F - 68.0 °F 87% 29.91 in - North - - N/A   Unknown